COSMOS 886 DEB *, 19425

Orbit data source: Space-Track

COSMOS 886 DEB *, 19425 is space debris in LEO originally from a launch on Mon, 27 Dec 1976 UTC launched from the Tyuratam Missile And Space Complex (TTMTR). Debris objects in space refer to the collection of defunct objects orbiting the Earth. Examples of debris include non-operational satellites, rocket bodies, and fragments generated from explosions, collisions, or faulty payload assembly.

Loading next visibility...
Identifier
19425, 1976-126CC
Orbit
LEO
Country
Flag of CISCIS
Related business
Manufacturer
Unknown
Mission
Spacecraft
Bus & Motor
Unknown
Mass
Unknown
Launch date (UTC)
1976-12-27 (49 years ago)
Launch vehicle
Unknown
Launch site
Tyuratam Missile And Space Complex (TTMTR)
Object type
Payload
Rocket body
Debris
Shape & HBR
Unknown shape, 0.1 m
Radar Cross Section
Small (<0.1 m²)

Expand to show TLE details & history
Last TLE update: 13 hours ago

TLE from 13 hours ago
0 COSMOS 886 DEB *
1 19425U 76126CC  26130.07342719  .00000821  00000-0  32321-2 0  9992
2 19425  66.2184 147.9869 0328666 202.1921 190.4838 12.76833803610249
Epoch: 2026-05-10T01:45Z
TLE epoch observation values (Epoch: 2026-05-10T01:45:44.109Z)
Latitude
29.07818°
Longitude
-92.2131°
Altitude
1,607.064 km
Speed
6.954 km/s
True Right ascension
10h 48m 24s
True Declination
28° 56' 52"
Sunlit
Object was in daylight at epoch
Visualization orbit readout
Latitude
Unknown
Longitude
Unknown
Altitude
Unknown
Speed
Unknown
Apparent Right ascension
Unknown
Apparent Declination
Unknown
Sunlit
N/A
Visualization observer readout
Local Sidereal Time
23:28:14
Azimuth
Unknown
Elevation
Unknown
Doppler factor
Unknown
Orbital elements
Apogee altitude
1,606.859 km
Perigee altitude
1,098.682 km
Semi-major axis
7,730.907 km
Eccentricity
0.03287
Inclination
66.2184°
RAAN
147.9869°
Arg. of periapsis
202.1921°
True anomaly
189.82517°
Mean anomaly
190.4838°
Eccentric anomaly
190.15189°
Mean motion
3.19299 °/min
Orbital period
112.75 mins
BSTAR
0.0032321
Loading maneuver chart data...
Computing Atmospheric mass density...
Loading historical data...
Loading historical data...
Loading historical data...
Loading historical data...
Loading historical data...
Loading historical data...
Loading historical data...

Documentation

Showing up to 5 results
|